Change the Weather History Date:

Saturday, May 4, 2013

  Actual Average Record
Temperature  
Mean Temperature 64 °F 56 °F  
Max Temperature 72 °F 66 °F 88 °F (1949)
Min Temperature 55 °F 46 °F 28 °F (1961)
Degree Days  
Heating Degree Days 1 10  
Month to date heating degree days 1 40  
Since 1 July heating degree days 5616 5551  
Cooling Degree Days 0 1  
Month to date cooling degree days 10 4  
Year to date cooling degree days 12 15  
Growing Degree Days 14 (Base 50)    
Moisture  
Dew Point 38 °F    
Average Humidity 39    
Maximum Humidity 51    
Minimum Humidity 27    
Precipitation  
Precipitation 0.00 in 0.12 in 1.47 in (1990)
Month to date precipitation 0.00 0.45  
Year to date precipitation 10.22 11.93  
Snow  
Snow 0.00 in 0.00 in - ()
Month to date snowfall 0.0 0.1  
Since 1 July snowfall 51.7 68.2  
Snow Depth 0.00 in    
Sea Level Pressure  
Sea Level Pressure 30.12 in    
Wind  
Wind Speed 13 mph (SE)    
Max Wind Speed 22 mph    
Max Gust Speed 26 mph    
Visibility 10 miles    
Events      
T = Trace of Precipitation, MM = Missing Value Source: NWS Daily Summary

Daily Weather History Graph

Daily Weather History Graph

Search for Another Location

Airport or City:

Trip Planner

Search our weather history database for the weather conditions in past years. The results will help you decide how hot, cold, wet, or windy it might be!

Date:

Astronomy

May. 04, 2013 Rise Set
Actual Time 6:20 AM EDT 8:28 PM EDT
Civil Twilight 5:50 AM EDT 8:58 PM EDT
Nautical Twilight 5:12 AM EDT 9:36 PM EDT
Astronomical Twilight 4:32 AM EDT 10:17 PM EDT
Moon 3:21 AM EDT (5/4) 3:21 PM EDT (5/4)
Length of Visible Light 15h 08m
Length of Day
14h 07m
Waning Crescent, 27% of the Moon is Illuminated
May 4
Waning Crescent
May 9
New
May 18
First Quarter
May 25
Full
May 31
Last Quarter

Hourly Weather History & Observations

Time (EDT) Temp. Dew Point Humidity Pressure Visibility Wind Dir Wind Speed Gust Speed Precip Events Conditions
12:51 AM 64.9 °F 43.0 °F 45% 30.14 in 10.0 mi SE 17.3 mph - N/A   Scattered Clouds
1:51 AM 63.0 °F 43.0 °F 48% 30.14 in 10.0 mi SE 15.0 mph 21.9 mph N/A   Mostly Cloudy
2:51 AM 61.0 °F 42.1 °F 50% 30.13 in 10.0 mi SSE 11.5 mph 20.7 mph N/A   Mostly Cloudy
3:51 AM 60.1 °F 42.1 °F 51% 30.13 in 10.0 mi SE 12.7 mph 20.7 mph N/A   Mostly Cloudy
4:51 AM 57.9 °F 39.9 °F 51% 30.13 in 10.0 mi SE 13.8 mph 23.0 mph N/A   Scattered Clouds
5:51 AM 57.0 °F 36.0 °F 45% 30.14 in 10.0 mi SE 16.1 mph 24.2 mph N/A   Mostly Cloudy
6:51 AM 55.0 °F 36.0 °F 49% 30.16 in 10.0 mi SE 10.4 mph - N/A   Mostly Cloudy
7:51 AM 55.0 °F 36.0 °F 49% 30.17 in 10.0 mi SE 13.8 mph - N/A   Overcast
8:51 AM 55.9 °F 34.0 °F 44% 30.17 in 10.0 mi SE 13.8 mph - N/A   Mostly Cloudy
9:51 AM 59.0 °F 32.0 °F 36% 30.16 in 10.0 mi SSE 17.3 mph 23.0 mph N/A   Mostly Cloudy
10:51 AM 63.0 °F 34.0 °F 34% 30.16 in 10.0 mi SE 15.0 mph - N/A   Mostly Cloudy
11:51 AM 64.9 °F 36.0 °F 34% 30.15 in 10.0 mi SSE 12.7 mph - N/A   Mostly Cloudy
12:51 PM 68.0 °F 39.0 °F 35% 30.14 in 10.0 mi SSE 16.1 mph 21.9 mph N/A   Mostly Cloudy
1:51 PM 69.1 °F 37.0 °F 31% 30.12 in 10.0 mi SE 13.8 mph - N/A   Mostly Cloudy
2:51 PM 71.1 °F 36.0 °F 28% 30.10 in 10.0 mi East 15.0 mph 20.7 mph N/A   Mostly Cloudy
3:51 PM 72.0 °F 37.0 °F 28% 30.09 in 10.0 mi SE 16.1 mph 19.6 mph N/A   Mostly Cloudy
4:51 PM 71.1 °F 37.9 °F 30% 30.08 in 10.0 mi ESE 12.7 mph - N/A   Mostly Cloudy
5:51 PM 71.1 °F 37.0 °F 29% 30.07 in 10.0 mi East 12.7 mph - N/A   Mostly Cloudy
6:51 PM 70.0 °F 35.1 °F 28% 30.08 in 10.0 mi ESE 13.8 mph - N/A   Mostly Cloudy
7:51 PM 69.1 °F 35.1 °F 29% 30.08 in 10.0 mi ESE 12.7 mph - N/A   Mostly Cloudy
8:51 PM 66.9 °F 39.0 °F 36% 30.10 in 10.0 mi ESE 9.2 mph - N/A   Mostly Cloudy
9:51 PM 66.0 °F 39.9 °F 38% 30.11 in 10.0 mi East 8.1 mph - N/A   Mostly Cloudy
10:51 PM 64.0 °F 39.9 °F 41% 30.12 in 10.0 mi ESE 9.2 mph - N/A   Mostly Cloudy
11:51 PM 63.0 °F 39.9 °F 43% 30.11 in 10.0 mi ESE 10.4 mph - N/A   Scattered Clouds